📊 Raw Sensor Data
Showing records 44851 to 44875 of 85,042 total
| ID | Distance (ft) | Battery V | Battery A | Int Temp (°F) | Int Humid (%) | Ext Temp (°F) | Solar V | RSSI | SNR | Time Stamp |
|---|---|---|---|---|---|---|---|---|---|---|
| 40204 | 16.4 | 3.95 | 0 | 96 | 41 | 89 | 5.10 | -69 | 7 | 05/10/2025 01:15 PM |
| 40203 | 16.5 | 3.95 | 0 | 96 | 41 | 88 | 5.10 | -70 | 8 | 05/10/2025 01:00 PM |
| 40202 | -- | 3.95 | 0 | 94 | 42 | 89 | 5.10 | -68 | 9 | 05/10/2025 12:46 PM |
| 40201 | 16.5 | 3.95 | 0 | 93 | 41 | 90 | 5.20 | -69 | 8 | 05/10/2025 12:30 PM |
| 40200 | 16.4 | 3.95 | 0 | 92 | 41 | 89 | 5.20 | -69 | 8 | 05/10/2025 12:15 PM |
| 40199 | 16.5 | 3.95 | 0 | 90 | 41 | 88 | 5.10 | -69 | 8 | 05/10/2025 12:00 PM |
| 40198 | 16.5 | 3.95 | 0 | 88 | 42 | 89 | 5.10 | -69 | 8 | 05/10/2025 11:45 AM |
| 40197 | 16.5 | 3.95 | 0 | 87 | 41 | 90 | 5.10 | -69 | 8 | 05/10/2025 11:30 AM |
| 40196 | 16.5 | 4.12 | 0 | 85 | 41 | 82 | 5.10 | -70 | 8 | 05/10/2025 11:15 AM |
| 40195 | -- | 3.95 | 0 | 85 | 41 | 84 | 5.10 | -69 | 8 | 05/10/2025 11:00 AM |
| 40194 | 16.6 | 3.95 | 0 | 83 | 41 | 83 | 5.10 | -69 | 7 | 05/10/2025 10:45 AM |
| 40193 | 16.6 | 3.95 | 0 | 82 | 40 | 81 | 5.10 | -69 | 8 | 05/10/2025 10:30 AM |
| 40192 | 16.6 | 4.11 | 0 | 79 | 41 | 83 | 5.10 | -68 | 8 | 05/10/2025 10:15 AM |
| 40191 | 16.5 | 3.95 | 0 | 77 | 41 | 78 | 5.10 | -70 | 8 | 05/10/2025 10:00 AM |
| 40190 | 16.5 | 3.96 | 0 | 76 | 42 | 79 | 5.10 | -70 | 8 | 05/10/2025 09:45 AM |
| 40189 | 16.5 | 3.96 | 0 | 74 | 42 | 76 | 5.10 | -69 | 7 | 05/10/2025 09:30 AM |
| 40188 | 16.5 | 3.95 | 0 | 73 | 42 | 73 | 5.10 | -70 | 7 | 05/10/2025 09:15 AM |
| 40187 | 16.7 | 4.00 | 0 | 72 | 42 | 73 | 5.10 | -69 | 8 | 05/10/2025 09:00 AM |
| 40186 | 16.6 | 3.96 | 0 | 72 | 42 | 73 | 5.10 | -69 | 8 | 05/10/2025 08:45 AM |
| 40185 | 16.7 | 3.96 | 0 | 72 | 41 | 75 | 5.10 | -68 | 8 | 05/10/2025 08:30 AM |
| 40184 | 16.6 | 3.96 | 0 | 70 | 41 | 78 | 5.10 | -68 | 8 | 05/10/2025 08:15 AM |
| 40183 | 16.5 | 4.10 | 0 | 68 | 41 | 76 | 5.10 | -70 | 8 | 05/10/2025 08:00 AM |
| 40182 | 16.5 | 3.96 | 0 | 66 | 40 | 76 | 5.10 | -68 | 8 | 05/10/2025 07:45 AM |
| 40181 | 16.5 | 4.05 | 57 | 64 | 40 | 74 | 4.50 | -68 | 8 | 05/10/2025 07:30 AM |
| 40180 | 16.5 | 3.97 | 25 | 61 | 40 | 72 | 4.50 | -68 | 8 | 05/10/2025 07:15 AM |